When you browse on this site, cookies collect data to enhance your experience and personalize the content and advertising you see.
Visit our Privacy Policy to learn more. By continuing to use the site, you agree to this use of cookies and data.
  • In Österreich
  • Länderverzeichnis
  • Für 7 Tage
  • Wassertemperatur
  • Satellitenkarten
  • Wetterkarte
  • News
  • Widgets
  • user-avatar
    Anmelden

    Stündliche Wetter Pogrebische

    Heute, 23 April, Dienstag

    Zeit Temperatur Niederschläge Wind Luftdruck Luftfeuchtigkeit
    00:00 +10°C° 0 mm 1 m/S 750 mmHg 57%
    01:00 +10°C° 0 mm 1 m/S 750 mmHg 56%
    02:00 +10°C° 0 mm 1 m/S 750 mmHg 55%
    03:00 +9°C° 0 mm 2 m/S 750 mmHg 55%
    04:00 +8°C° 0 mm 2 m/S 750 mmHg 56%
    05:00 +8°C° 0 mm 2 m/S 750 mmHg 56%
    06:00 +9°C° 0 mm 2 m/S 751 mmHg 55%
    07:00 +11°C° 0 mm 3 m/S 751 mmHg 54%
    08:00 +12°C° 0 mm 3 m/S 751 mmHg 53%
    09:00 +13°C° 0 mm 3 m/S 751 mmHg 47%
    10:00 +15°C° 0 mm 4 m/S 751 mmHg 42%
    11:00 +17°C° 0 mm 4 m/S 752 mmHg 36%
    12:00 +17°C° 0 mm 4 m/S 751 mmHg 37%
    13:00 +16°C° 0 mm 5 m/S 751 mmHg 39%
    14:00 +16°C° 0 mm 5 m/S 751 mmHg 40%
    15:00 +15°C° 0 mm 5 m/S 751 mmHg 42%
    16:00 +15°C° 0 mm 4 m/S 751 mmHg 43%
    17:00 +15°C° 0 mm 4 m/S 750 mmHg 44%
    18:00 +14°C° 0 mm 4 m/S 750 mmHg 49%
    19:00 +12°C° 0 mm 3 m/S 750 mmHg 54%
    20:00 +11°C° 0 mm 3 m/S 750 mmHg 59%
    21:00 +10°C° 0 mm 3 m/S 750 mmHg 59%
    22:00 +9°C° 0 mm 3 m/S 751 mmHg 59%
    23:00 +9°C° 0 mm 3 m/S 751 mmHg 59%

    Morgen, 24 April, Mittwoch

    Zeit Temperatur Niederschläge Wind Luftdruck Luftfeuchtigkeit
    00:00 +8°C° 0 mm 3 m/S 751 mmHg 61%
    01:00 +8°C° 0 mm 3 m/S 751 mmHg 62%
    02:00 +7°C° 0 mm 2 m/S 751 mmHg 64%
    03:00 +7°C° 0 mm 2 m/S 751 mmHg 66%
    04:00 +7°C° 0 mm 2 m/S 751 mmHg 67%
    05:00 +6°C° 0 mm 2 m/S 751 mmHg 69%
    06:00 +8°C° 0 mm 3 m/S 751 mmHg 64%
    07:00 +10°C° 0 mm 3 m/S 751 mmHg 60%
    08:00 +12°C° 0 mm 4 m/S 751 mmHg 55%
    09:00 +13°C° 0 mm 5 m/S 751 mmHg 51%
    10:00 +15°C° 0 mm 5 m/S 751 mmHg 47%
    11:00 +16°C° 0 mm 6 m/S 751 mmHg 43%
    12:00 +16°C° 0 mm 6 m/S 751 mmHg 42%
    13:00 +17°C° 0 mm 6 m/S 751 mmHg 42%
    14:00 +17°C° 0 mm 6 m/S 751 mmHg 41%
    15:00 +17°C° 0 mm 6 m/S 751 mmHg 42%
    16:00 +17°C° 0 mm 5 m/S 750 mmHg 44%
    17:00 +16°C° 0 mm 5 m/S 750 mmHg 45%
    18:00 +15°C° 0 mm 4 m/S 750 mmHg 50%
    19:00 +13°C° 0 mm 3 m/S 750 mmHg 55%
    20:00 +11°C° 0 mm 3 m/S 750 mmHg 60%
    21:00 +12°C° 0 mm 2 m/S 750 mmHg 62%
    22:00 +10°C° 0 mm 2 m/S 750 mmHg 64%
    23:00 +10°C° 0 mm 2 m/S 750 mmHg 66%

    übermorgen, 25 April, Donnerstag

    Zeit Temperatur Niederschläge Wind Luftdruck Luftfeuchtigkeit
    00:00 +9°C° 0 mm 2 m/S 750 mmHg 68%
    01:00 +9°C° 0 mm 2 m/S 750 mmHg 69%
    02:00 +8°C° 0 mm 2 m/S 750 mmHg 71%
    03:00 +8°C° 0 mm 2 m/S 750 mmHg 71%
    04:00 +8°C° 0 mm 2 m/S 750 mmHg 72%
    05:00 +8°C° 0 mm 3 m/S 750 mmHg 73%
    06:00 +9°C° 0 mm 3 m/S 751 mmHg 69%
    07:00 +11°C° 0 mm 4 m/S 751 mmHg 65%
    08:00 +13°C° 0 mm 4 m/S 751 mmHg 61%
    09:00 +14°C° 0 mm 5 m/S 751 mmHg 56%
    10:00 +16°C° 0 mm 5 m/S 751 mmHg 51%
    11:00 +17°C° 0 mm 6 m/S 751 mmHg 46%
    12:00 +19°C° 0 mm 6 m/S 751 mmHg 44%
    13:00 +19°C° 0 mm 6 m/S 750 mmHg 43%
    14:00 +20°C° 0 mm 6 m/S 750 mmHg 41%
    15:00 +20°C° 0 mm 5 m/S 750 mmHg 43%
    16:00 +19°C° 0 mm 5 m/S 749 mmHg 44%
    17:00 +19°C° 0 mm 5 m/S 749 mmHg 46%
    18:00 +17°C° 0 mm 4 m/S 749 mmHg 51%
    19:00 +16°C° 0 mm 3 m/S 749 mmHg 56%
    20:00 +13°C° 0 mm 3 m/S 748 mmHg 61%
    21:00 +12°C° 0 mm 3 m/S 748 mmHg 62%
    22:00 +12°C° 0 mm 3 m/S 748 mmHg 63%
    23:00 +11°C° 0 mm 3 m/S 748 mmHg 64%

    26 April, Freitag

    Zeit Temperatur Niederschläge Wind Luftdruck Luftfeuchtigkeit
    00:00 +11°C° 0 mm 3 m/S 748 mmHg 66%
    01:00 +10°C° 0 mm 3 m/S 748 mmHg 69%
    02:00 +10°C° 0 mm 3 m/S 748 mmHg 71%
    03:00 +9°C° 0 mm 3 m/S 748 mmHg 73%
    04:00 +9°C° 0 mm 3 m/S 748 mmHg 74%
    05:00 +8°C° 0 mm 3 m/S 748 mmHg 76%
    06:00 +10°C° 0 mm 3 m/S 748 mmHg 71%
    07:00 +11°C° 0 mm 4 m/S 748 mmHg 66%
    08:00 +13°C° 0 mm 4 m/S 748 mmHg 60%
    09:00 +14°C° 0 mm 5 m/S 747 mmHg 54%
    10:00 +16°C° 0 mm 5 m/S 747 mmHg 49%
    11:00 +17°C° 0 mm 6 m/S 747 mmHg 43%
    12:00 +19°C° 0 mm 6 m/S 747 mmHg 41%
    13:00 +20°C° 0 mm 6 m/S 747 mmHg 40%
    14:00 +20°C° 0 mm 6 m/S 746 mmHg 38%
    15:00 +20°C° 0 mm 5 m/S 746 mmHg 40%
    16:00 +20°C° 0 mm 5 m/S 746 mmHg 42%
    17:00 +20°C° 0 mm 5 m/S 745 mmHg 44%
    18:00 +18°C° 0 mm 4 m/S 745 mmHg 48%
    19:00 +15°C° 0 mm 4 m/S 745 mmHg 53%
    20:00 +13°C° 0 mm 3 m/S 745 mmHg 57%
    21:00 +13°C° 0 mm 4 m/S 745 mmHg 58%
    22:00 +12°C° 0 mm 4 m/S 745 mmHg 59%
    23:00 +12°C° 0 mm 4 m/S 745 mmHg 59%

    27 April, Samstag

    Zeit Temperatur Niederschläge Wind Luftdruck Luftfeuchtigkeit
    00:00 +12°C° 0 mm 4 m/S 745 mmHg 61%
    01:00 +11°C° 0 mm 4 m/S 744 mmHg 64%
    02:00 +11°C° 0 mm 3 m/S 744 mmHg 66%
    03:00 +10°C° 0 mm 3 m/S 744 mmHg 68%
    04:00 +10°C° 0 mm 3 m/S 744 mmHg 70%
    05:00 +9°C° 0 mm 3 m/S 744 mmHg 72%
    06:00 +11°C° 0 mm 4 m/S 744 mmHg 67%
    07:00 +12°C° 0 mm 5 m/S 744 mmHg 63%
    08:00 +14°C° 0 mm 5 m/S 744 mmHg 58%
    09:00 +16°C° 0 mm 6 m/S 744 mmHg 54%
    10:00 +17°C° 0 mm 6 m/S 744 mmHg 50%
    11:00 +20°C° 0 mm 7 m/S 743 mmHg 46%
    12:00 +20°C° 0 mm 6 m/S 743 mmHg 45%
    13:00 +21°C° 0 mm 6 m/S 743 mmHg 45%
    14:00 +22°C° 0 mm 6 m/S 742 mmHg 44%
    15:00 +21°C° 0 mm 6 m/S 742 mmHg 46%
    16:00 +21°C° 0 mm 5 m/S 742 mmHg 47%
    17:00 +21°C° 0 mm 5 m/S 741 mmHg 49%
    18:00 +19°C° 0 mm 4 m/S 741 mmHg 54%
    19:00 +17°C° 0 mm 4 m/S 741 mmHg 60%
    20:00 +14°C° 0 mm 3 m/S 741 mmHg 65%
    21:00 +14°C° 0 mm 3 m/S 741 mmHg 68%
    22:00 +13°C° 0 mm 4 m/S 741 mmHg 70%
    23:00 +13°C° 0 mm 4 m/S 741 mmHg 72%

    28 April, Sonntag

    Zeit Temperatur Niederschläge Wind Luftdruck Luftfeuchtigkeit
    00:00 +12°C° 0 mm 4 m/S 741 mmHg 74%
    01:00 +12°C° 0 mm 4 m/S 741 mmHg 77%
    02:00 +11°C° 0 mm 3 m/S 741 mmHg 79%
    03:00 +11°C° 0 mm 3 m/S 741 mmHg 79%
    04:00 +10°C° 0 mm 4 m/S 740 mmHg 79%
    05:00 +10°C° 0 mm 4 m/S 740 mmHg 79%
    06:00 +11°C° 0 mm 4 m/S 740 mmHg 73%
    07:00 +13°C° 0 mm 5 m/S 741 mmHg 66%
    08:00 +14°C° 0 mm 5 m/S 741 mmHg 59%
    09:00 +16°C° 0 mm 5 m/S 741 mmHg 55%
    10:00 +17°C° 0 mm 6 m/S 741 mmHg 50%
    11:00 +20°C° 0 mm 6 m/S 741 mmHg 46%
    12:00 +20°C° 0 mm 5 m/S 741 mmHg 45%
    13:00 +21°C° 0 mm 5 m/S 741 mmHg 44%
    14:00 +21°C° 0 mm 5 m/S 741 mmHg 44%
    15:00 +21°C° 0 mm 4 m/S 741 mmHg 46%
    16:00 +21°C° 0 mm 4 m/S 741 mmHg 48%
    17:00 +20°C° 0 mm 3 m/S 740 mmHg 50%
    18:00 +19°C° 0 mm 2 m/S 740 mmHg 57%
    19:00 +17°C° 0 mm 2 m/S 741 mmHg 64%
    20:00 +15°C° 0 mm 1 m/S 741 mmHg 71%
    21:00 +15°C° 0 mm 1 m/S 741 mmHg 72%
    22:00 +15°C° 0 mm 1 m/S 741 mmHg 74%
    23:00 +15°C° 0 mm 1 m/S 741 mmHg 76%
    Mehr zeigen